Regional Weather Roundup
Issued by NWS

Home | Current Version | Previous Version | Text Only | Print | Product List | Glossary Off
Versions: 1 2 3 4 5 6 7 8 9 10 11 12 13 14 15 16 17 18 19 20 21 22 23 24 25 26 27 28 29 30 31 32 33 34 35 36 37 38 39 40 41 42 43 44 45 46 47 48 49 50

000
ASUS44 KMEG 242000
RWRTN
TENNESSEE HOURLY STATE WEATHER ROUNDUP
NATIONAL WEATHER SERVICE MEMPHIS TN
300 PM CDT THU JUL 24 2014

TNZ002-004-019-021-049-052-054-088>092-242100-
WEST TENNESSEE

CITY           SKY/WX    TMP DP  RH WIND       PRES   REMARKS
MEMPHIS INTL   SUNNY     82  60  47 N10       30.03F
NWS MEMPHIS      N/A     81 N/A N/A MISG        N/A
JACKSON        SUNNY     81  58  45 NW13      30.03S
DYERSBURG      PTSUNNY   79  57  47 NE8G16    30.05S
PARIS          MOSUNNY   77  63  61 NW8       30.04F
LEXINGTON      MOSUNNY   79  63  57 NW6       30.01S
$$

TNZ008-025-027-028-033-062-065-066-242100-
NORTH MIDDLE TENNESSEE

CITY           SKY/WX    TMP DP  RH WIND       PRES   REMARKS
NASHVILLE      MOSUNNY   82  65  56 VRB6      30.01F
CLARKSVILLE    MOSUNNY   82  60  47 N9G17     30.02S
COOKEVILLE     MOSUNNY   81  70  69 N8        29.99F
CROSSVILLE     MOSUNNY   77  67  71 N9        30.02S
$$

TNZ061-075-076-078-094-096-097-242100-
SOUTH MIDDLE TENNESSEE

CITY           SKY/WX    TMP DP  RH WIND       PRES   REMARKS
FAYETTEVILLE   SUNNY     81  64  57 NW10      29.98F
WINCHESTER     SUNNY     82  66  57 NW6       29.98F
MCMINNVILLE    PTSUNNY   81  72  74 NW12      29.99S
COLUMBIA       MOSUNNY   84  66  54 N6        29.99R
SHELBYVILLE    MOSUNNY   82  72  69 N10       29.99F
$$

TNZ017-018-042-046-047-242100-
NORTHEAST TENNESSEE

CITY           SKY/WX    TMP DP  RH WIND       PRES   REMARKS
TRI CITIES     TSTM      73  67  81 NW9       29.96S
ELIZABETHTON   MOCLDY    79  66  65 N14       29.96R
$$

TNZ012-013-036-069-073-074-242100-
CENTRAL EAST TENNESSEE

CITY           SKY/WX    TMP DP  RH WIND       PRES   REMARKS
KNOXVILLE      PTSUNNY   84  69  60 NW7       29.93F
OAK RIDGE      SUNNY     88  67  49 W8        29.94F HX  91
GATLINBURG     PTCLDY    84  68  58 W12       29.93S
$$

TNZ083-085-099-242100-
SOUTHEAST TENNESSEE

CITY           SKY/WX    TMP DP  RH WIND       PRES   REMARKS
CHATTANOOGA    MOSUNNY   86  68  54 NW8       29.94F
$$

SKY/WX REPORTED AS FAIR MEANS FEW OR NO CLOUDS BELOW
12 THOUSAND FEET.




USA.gov is the U.S. government's official web portal to all federal, state and local government web resources and services.